LC10 EYKA-UKLL

Flight info

Callsign LC10
Flight time 1h 0m
Altitude 350
Route KAZL1B BOKSU SUWGI EVODO BESOT ETUBO DISBI LUGUG BALBA ROLK1J
Aircraft B733/M-V/N

Departure

Time 2026-04-26 09:03
Airport Kaunas International Airport (EYKA)

Arrival

Time 2026-04-26 10:04
Airport Lviv International Airport (UKLL)
Time Latitude Longitude Altitude Speed Heading
2026-04-26 08:53 54.96558 24.07573 230 ft 0 kts 105°
2026-04-26 08:58 54.96558 24.07574 230 ft 0 kts 105°
2026-04-26 08:58 54.96554 24.07595 230 ft 3 kts 105°
2026-04-26 08:58 54.96542 24.07641 230 ft 5 kts 144°
2026-04-26 08:59 54.96518 24.07709 230 ft 9 kts 83°
2026-04-26 08:59 54.96525 24.07832 230 ft 11 kts 84°
2026-04-26 08:59 54.96532 24.07959 232 ft 10 kts 85°
2026-04-26 08:59 54.96552 24.08104 232 ft 13 kts 75°
2026-04-26 09:00 54.96574 24.08272 233 ft 14 kts 88°
2026-04-26 09:00 54.96583 24.08492 233 ft 23 kts 84°
2026-04-26 09:00 54.96601 24.08838 235 ft 33 kts 84°
2026-04-26 09:00 54.96622 24.09243 241 ft 33 kts 85°
2026-04-26 09:01 54.96628 24.09579 241 ft 20 kts 114°
2026-04-26 09:01 54.96497 24.09656 243 ft 19 kts 175°
2026-04-26 09:01 54.96461 24.09848 244 ft 19 kts 86°
2026-04-26 09:01 54.96475 24.10155 246 ft 30 kts 84°
2026-04-26 09:02 54.96493 24.10534 246 ft 31 kts 84°
2026-04-26 09:02 54.96557 24.10847 246 ft 21 kts 71°
2026-04-26 09:02 54.96522 24.10929 245 ft 16 kts 249°
2026-04-26 09:02 54.96501 24.10684 247 ft 38 kts 267°
2026-04-26 09:03 54.96460 24.09803 244 ft 106 kts 265°
2026-04-26 09:03 54.96380 24.08172 277 ft 157 kts 271°
2026-04-26 09:03 54.96254 24.06200 628 ft 171 kts 266°
2026-04-26 09:03 54.96103 24.04058 1068 ft 179 kts 274°
2026-04-26 09:04 54.96019 24.01994 1505 ft 164 kts 267°
2026-04-26 09:04 54.95935 24.00039 1919 ft 163 kts 265°
2026-04-26 09:04 54.95831 23.98094 2371 ft 161 kts 271°
2026-04-26 09:04 54.95741 23.96149 2761 ft 163 kts 271°
2026-04-26 09:05 54.95648 23.94139 3046 ft 172 kts 270°
2026-04-26 09:05 54.95554 23.91968 3249 ft 188 kts 269°
2026-04-26 09:05 54.95435 23.89605 3418 ft 205 kts 266°
2026-04-26 09:05 54.95304 23.87052 3473 ft 215 kts 265°
2026-04-26 09:06 54.95180 23.84476 3771 ft 212 kts 267°
2026-04-26 09:06 54.95049 23.81856 4151 ft 222 kts 264°
2026-04-26 09:06 54.94896 23.79155 4700 ft 225 kts 265°
2026-04-26 09:06 54.94540 23.76510 5153 ft 234 kts 246°
2026-04-26 09:07 54.93499 23.74376 5739 ft 236 kts 219°
2026-04-26 09:07 54.91928 23.73279 6027 ft 256 kts 187°
2026-04-26 09:07 54.90143 23.73204 6535 ft 260 kts 184°
2026-04-26 09:07 54.88312 23.73194 7029 ft 266 kts 182°
2026-04-26 09:08 54.86443 23.73196 7506 ft 270 kts 182°
2026-04-26 09:08 54.84560 23.73202 8034 ft 273 kts 182°
2026-04-26 09:08 54.82697 23.73214 8651 ft 271 kts 182°
2026-04-26 09:08 54.80824 23.73226 9213 ft 271 kts 181°
2026-04-26 09:09 54.78915 23.73192 9669 ft 275 kts 187°
2026-04-26 09:09 54.77063 23.72462 10076 ft 278 kts 203°
2026-04-26 09:09 54.75363 23.70736 10128 ft 296 kts 221°
2026-04-26 09:09 54.73788 23.68287 10203 ft 313 kts 223°
2026-04-26 09:10 54.72165 23.65708 10535 ft 321 kts 222°
2026-04-26 09:10 54.70509 23.63088 10995 ft 325 kts 222°
2026-04-26 09:10 54.68818 23.60418 11486 ft 328 kts 222°
2026-04-26 09:10 54.67126 23.57751 11968 ft 331 kts 222°
2026-04-26 09:11 54.65424 23.55073 12440 ft 334 kts 222°
2026-04-26 09:11 54.63709 23.52379 12921 ft 336 kts 222°
2026-04-26 09:11 54.61984 23.49673 13393 ft 338 kts 222°
2026-04-26 09:11 54.60248 23.46952 13850 ft 340 kts 222°
2026-04-26 09:12 54.58500 23.44217 14295 ft 342 kts 222°
2026-04-26 09:12 54.56740 23.41466 14731 ft 344 kts 223°
2026-04-26 09:12 54.54969 23.38701 15157 ft 346 kts 223°
2026-04-26 09:12 54.53189 23.35925 15573 ft 348 kts 223°
2026-04-26 09:13 54.51394 23.33125 15960 ft 351 kts 222°
2026-04-26 09:13 54.49561 23.30358 16365 ft 353 kts 218°
2026-04-26 09:13 54.47615 23.27799 16767 ft 354 kts 217°
2026-04-26 09:13 54.45650 23.25248 17149 ft 356 kts 217°
2026-04-26 09:14 54.43685 23.22694 17519 ft 359 kts 217°
2026-04-26 09:14 54.41678 23.20082 17890 ft 361 kts 218°
2026-04-26 09:14 54.39679 23.17481 18252 ft 363 kts 218°
2026-04-26 09:14 54.37664 23.14862 18604 ft 365 kts 218°
2026-04-26 09:15 54.35638 23.12231 18946 ft 367 kts 218°
2026-04-26 09:15 54.33591 23.09575 19283 ft 370 kts 218°
2026-04-26 09:15 54.31533 23.06930 19613 ft 372 kts 216°
2026-04-26 09:15 54.29259 23.04834 19921 ft 376 kts 204°
2026-04-26 09:16 54.26837 23.03219 20227 ft 379 kts 202°
2026-04-26 09:16 54.24367 23.01594 20595 ft 382 kts 203°
2026-04-26 09:16 54.21891 22.99953 21010 ft 384 kts 203°
2026-04-26 09:16 54.19402 22.98296 21406 ft 387 kts 203°
2026-04-26 09:17 54.16893 22.96623 21795 ft 389 kts 203°
2026-04-26 09:17 54.14371 22.94941 22170 ft 392 kts 203°
2026-04-26 09:17 54.11829 22.93248 22542 ft 395 kts 204°
2026-04-26 09:17 54.09272 22.91547 22906 ft 398 kts 203°
2026-04-26 09:18 54.06618 22.90215 23242 ft 404 kts 191°
2026-04-26 09:18 54.03804 22.90017 23570 ft 410 kts 181°
2026-04-26 09:18 54.00957 22.90178 23900 ft 413 kts 180°
2026-04-26 09:18 53.98090 22.90332 24231 ft 415 kts 181°
2026-04-26 09:19 53.95201 22.90463 24556 ft 418 kts 181°
2026-04-26 09:19 53.92296 22.90582 24874 ft 421 kts 181°
2026-04-26 09:19 53.89371 22.90696 25177 ft 424 kts 181°
2026-04-26 09:19 53.86415 22.90809 25428 ft 428 kts 181°
2026-04-26 09:20 53.83446 22.90922 25778 ft 429 kts 181°
2026-04-26 09:20 53.80464 22.91035 26085 ft 431 kts 181°
2026-04-26 09:20 53.77513 22.91147 26372 ft 434 kts 181°
2026-04-26 09:20 53.74499 22.91260 26656 ft 436 kts 181°
2026-04-26 09:21 53.71466 22.91374 26935 ft 439 kts 181°
2026-04-26 09:21 53.68417 22.91489 27208 ft 441 kts 181°
2026-04-26 09:21 53.65350 22.91604 27476 ft 444 kts 181°
2026-04-26 09:21 53.62272 22.91720 27785 ft 445 kts 181°
2026-04-26 09:22 53.59193 22.91835 28149 ft 444 kts 181°
2026-04-26 09:22 53.56120 22.91950 28513 ft 444 kts 181°
2026-04-26 09:22 53.53044 22.92065 28850 ft 443 kts 181°
2026-04-26 09:22 53.49971 22.92179 29159 ft 444 kts 181°
2026-04-26 09:23 53.46897 22.92294 29454 ft 444 kts 181°
2026-04-26 09:23 53.43821 22.92408 29744 ft 444 kts 181°
2026-04-26 09:23 53.40745 22.92522 30031 ft 444 kts 181°
2026-04-26 09:23 53.37667 22.92636 30310 ft 444 kts 181°
2026-04-26 09:24 53.34588 22.92750 30581 ft 444 kts 181°
2026-04-26 09:24 53.31511 22.92864 30842 ft 444 kts 181°
2026-04-26 09:24 53.28433 22.92977 31094 ft 445 kts 181°
2026-04-26 09:24 53.25353 22.93094 31340 ft 445 kts 180°
2026-04-26 09:25 53.22273 22.93217 31576 ft 445 kts 180°
2026-04-26 09:25 53.19192 22.93343 31804 ft 445 kts 180°
2026-04-26 09:25 53.16112 22.93470 32025 ft 445 kts 180°
2026-04-26 09:25 53.13033 22.93598 32237 ft 445 kts 180°
2026-04-26 09:26 53.09953 22.93725 32451 ft 445 kts 180°
2026-04-26 09:26 53.06881 22.93852 32724 ft 442 kts 181°
2026-04-26 09:26 53.03828 22.93978 33033 ft 439 kts 181°
2026-04-26 09:26 53.00814 22.94103 33341 ft 436 kts 181°
2026-04-26 09:27 52.97771 22.94228 33632 ft 432 kts 181°
2026-04-26 09:27 52.94830 22.94348 33898 ft 429 kts 181°
2026-04-26 09:27 52.91862 22.94469 34084 ft 428 kts 181°
2026-04-26 09:28 52.85861 22.94702 34201 ft 432 kts 181°
2026-04-26 09:28 52.82876 22.94822 34341 ft 432 kts 181°
2026-04-26 09:28 52.79860 22.94944 34529 ft 430 kts 181°
2026-04-26 09:28 52.76934 22.95062 34695 ft 428 kts 181°
2026-04-26 09:29 52.73969 22.95182 34833 ft 428 kts 181°
2026-04-26 09:29 52.71006 22.95301 34949 ft 428 kts 181°
2026-04-26 09:29 52.68038 22.95420 34964 ft 429 kts 181°
2026-04-26 09:30 52.62101 22.95658 34946 ft 428 kts 181°
2026-04-26 09:30 52.56189 22.95895 34939 ft 426 kts 181°
2026-04-26 09:31 52.50282 22.96130 34939 ft 426 kts 181°
2026-04-26 09:31 52.44378 22.96358 34941 ft 426 kts 181°
2026-04-26 09:32 52.38473 22.96582 34952 ft 426 kts 181°
2026-04-26 09:32 52.32567 22.96812 34961 ft 426 kts 181°
2026-04-26 09:33 52.26661 22.97042 34965 ft 426 kts 181°
2026-04-26 09:33 52.20761 22.97271 34963 ft 426 kts 181°
2026-04-26 09:34 52.14865 22.97499 34963 ft 426 kts 181°
2026-04-26 09:34 52.08967 22.97728 34978 ft 425 kts 181°
2026-04-26 09:35 52.03077 22.97948 35000 ft 425 kts 181°
2026-04-26 09:35 51.97182 22.98168 35023 ft 425 kts 181°
2026-04-26 09:36 51.91289 22.98393 35023 ft 425 kts 181°
2026-04-26 09:36 51.85439 22.98617 35008 ft 425 kts 181°
2026-04-26 09:37 51.79554 22.98842 35022 ft 425 kts 181°
2026-04-26 09:37 51.73666 22.99065 35022 ft 425 kts 181°
2026-04-26 09:38 51.67783 22.99288 35022 ft 425 kts 181°
2026-04-26 09:38 51.61905 22.99510 35021 ft 424 kts 181°
2026-04-26 09:39 51.56025 22.99731 35022 ft 424 kts 181°
2026-04-26 09:39 51.50148 22.99952 35021 ft 424 kts 181°
2026-04-26 09:40 51.44273 23.00172 35022 ft 424 kts 181°
2026-04-26 09:40 51.38402 23.00390 35021 ft 424 kts 181°
2026-04-26 09:41 51.32517 23.00600 35022 ft 424 kts 181°
2026-04-26 09:41 51.26660 23.00819 35021 ft 424 kts 181°
2026-04-26 09:42 51.20793 23.01042 35022 ft 424 kts 181°
2026-04-26 09:42 51.14935 23.01264 35022 ft 423 kts 181°
2026-04-26 09:43 51.09074 23.01486 35021 ft 423 kts 181°
2026-04-26 09:43 51.03217 23.01707 35022 ft 423 kts 181°
2026-04-26 09:44 50.97357 23.01928 35027 ft 420 kts 181°
2026-04-26 09:44 50.91557 23.02145 34784 ft 422 kts 181°
2026-04-26 09:44 50.88657 23.02271 34092 ft 425 kts 178°
2026-04-26 09:45 50.85789 23.03402 33358 ft 427 kts 156°
2026-04-26 09:45 50.83393 23.06152 32667 ft 430 kts 134°
2026-04-26 09:45 50.81546 23.09767 31996 ft 430 kts 130°
2026-04-26 09:45 50.79705 23.13479 31302 ft 428 kts 131°
2026-04-26 09:46 50.77792 23.17090 30605 ft 427 kts 133°
2026-04-26 09:46 50.75846 23.20616 29910 ft 427 kts 133°
2026-04-26 09:46 50.73880 23.24120 29220 ft 428 kts 134°
2026-04-26 09:46 50.71910 23.27607 28519 ft 430 kts 134°
2026-04-26 09:47 50.69951 23.31067 27786 ft 429 kts 134°
2026-04-26 09:47 50.67966 23.34566 27043 ft 429 kts 134°
2026-04-26 09:47 50.65991 23.38042 26301 ft 429 kts 134°
2026-04-26 09:47 50.63987 23.41565 25550 ft 429 kts 134°
2026-04-26 09:48 50.62022 23.45014 24879 ft 426 kts 134°
2026-04-26 09:48 50.60067 23.48441 24257 ft 423 kts 134°
2026-04-26 09:48 50.58093 23.51897 23626 ft 419 kts 133°
2026-04-26 09:48 50.56168 23.55263 22974 ft 417 kts 133°
2026-04-26 09:49 50.54239 23.58630 22302 ft 415 kts 133°
2026-04-26 09:49 50.52327 23.61964 21655 ft 412 kts 133°
2026-04-26 09:49 50.50420 23.65284 21038 ft 408 kts 134°
2026-04-26 09:49 50.48532 23.68578 20419 ft 405 kts 134°
2026-04-26 09:50 50.46663 23.71833 19820 ft 401 kts 134°
2026-04-26 09:50 50.44824 23.75026 19228 ft 398 kts 134°
2026-04-26 09:50 50.42948 23.78279 18618 ft 394 kts 134°
2026-04-26 09:50 50.40979 23.81214 18001 ft 388 kts 148°
2026-04-26 09:51 50.38536 23.82942 17418 ft 379 kts 168°
2026-04-26 09:51 50.35950 23.83586 16851 ft 375 kts 174°
2026-04-26 09:51 50.33404 23.84103 16281 ft 371 kts 174°
2026-04-26 09:51 50.30836 23.84636 15686 ft 369 kts 173°
2026-04-26 09:52 50.28332 23.85165 15071 ft 368 kts 173°
2026-04-26 09:52 50.23291 23.86238 13928 ft 362 kts 173°
2026-04-26 09:52 50.20836 23.86762 13384 ft 359 kts 173°
2026-04-26 09:53 50.18367 23.87290 12829 ft 355 kts 173°
2026-04-26 09:53 50.15971 23.87801 12287 ft 349 kts 173°
2026-04-26 09:53 50.13575 23.88312 11803 ft 342 kts 173°
2026-04-26 09:53 50.11243 23.88809 11326 ft 336 kts 173°
2026-04-26 09:54 50.08955 23.89296 10863 ft 329 kts 173°
2026-04-26 09:54 50.06727 23.89770 10440 ft 324 kts 173°
2026-04-26 09:54 50.04528 23.90237 10016 ft 319 kts 174°
2026-04-26 09:54 50.02341 23.90701 9588 ft 315 kts 174°
2026-04-26 09:55 50.00196 23.91156 9165 ft 311 kts 174°
2026-04-26 09:55 49.98070 23.91606 8740 ft 308 kts 174°
2026-04-26 09:55 49.95945 23.92056 8310 ft 305 kts 174°
2026-04-26 09:55 49.93851 23.92499 7883 ft 301 kts 174°
2026-04-26 09:56 49.91821 23.93144 7446 ft 301 kts 158°
2026-04-26 09:56 49.90189 23.95139 7008 ft 302 kts 126°
2026-04-26 09:56 49.89360 23.98069 6578 ft 301 kts 111°
2026-04-26 09:56 49.88246 24.00791 6127 ft 294 kts 141°
2026-04-26 09:57 49.86764 24.02928 5712 ft 292 kts 135°
2026-04-26 09:57 49.85371 24.05220 5287 ft 290 kts 135°
2026-04-26 09:57 49.83997 24.07488 4918 ft 287 kts 135°
2026-04-26 09:57 49.82650 24.09708 4620 ft 280 kts 134°
2026-04-26 09:58 49.81342 24.11863 4492 ft 268 kts 135°
2026-04-26 09:58 49.80084 24.13930 4193 ft 265 kts 134°
2026-04-26 09:58 49.78822 24.16003 3830 ft 264 kts 134°
2026-04-26 09:58 49.77560 24.18073 3459 ft 263 kts 134°
2026-04-26 09:59 49.76313 24.20119 3125 ft 260 kts 134°
2026-04-26 09:59 49.74961 24.21924 2968 ft 250 kts 158°
2026-04-26 09:59 49.73365 24.22214 2985 ft 222 kts 200°
2026-04-26 09:59 49.72142 24.20903 3020 ft 213 kts 242°
2026-04-26 10:00 49.71728 24.18799 3036 ft 207 kts 261°
2026-04-26 10:00 49.71440 24.16590 3008 ft 207 kts 259°
2026-04-26 10:00 49.71117 24.14454 2991 ft 205 kts 259°
2026-04-26 10:00 49.71085 24.12268 2977 ft 203 kts 281°
2026-04-26 10:01 49.71538 24.10216 2983 ft 202 kts 299°
2026-04-26 10:01 49.72401 24.08528 2987 ft 204 kts 314°
2026-04-26 10:01 49.73438 24.07013 2953 ft 208 kts 315°
2026-04-26 10:01 49.74498 24.05484 2619 ft 208 kts 315°
2026-04-26 10:02 49.75525 24.03977 2296 ft 201 kts 315°
2026-04-26 10:02 49.76503 24.02529 2030 ft 183 kts 314°
2026-04-26 10:02 49.77380 24.01232 1788 ft 166 kts 314°
2026-04-26 10:02 49.78171 24.00055 1574 ft 149 kts 315°
2026-04-26 10:03 49.78873 23.99007 1381 ft 131 kts 314°
2026-04-26 10:03 49.79476 23.98085 1290 ft 116 kts 314°
2026-04-26 10:03 49.80066 23.97200 1082 ft 120 kts 314°
2026-04-26 10:03 49.80593 23.96409 1045 ft 79 kts 316°
2026-04-26 10:04 49.80837 23.96046 1044 ft 21 kts 333°
2026-04-26 10:04 49.80977 23.96029 1044 ft 17 kts
2026-04-26 10:04 49.81098 23.96043 1042 ft 14 kts 33°
2026-04-26 10:04 49.81165 23.96149 1039 ft 0 kts 42°